Location: Bois de la Silve
(44.4667°N, 6.7833°E)
Time: 08:48:41
(UTC+00:00)

Helios 1B rocket - Pass Details

Date: 14 July 2020
Orbit: 574 x 584 km, 98.1° (Epoch: 14 August)

Event Time Altitude Azimuth Distance (km) Brightness Sun altitude
Rises 00:26:53 0° 9° (N) 2,808 7.4 -23.0°
Reaches altitude 10° 00:29:04 10° 6° (N) 1,902 6.2 -22.9°
Maximum altitude 00:33:07 58° 287° (WNW) 676 2.7 -22.7°
Enters shadow 00:33:19 58° 273° (W) 681 2.6 -22.7°
